SL-8 R/B

Satellite information

Favourite Embed

Satellite Type and Status

ROCKET BODYIN ORBIT

Key statistics

Satellite SL-8 R/B at a glance.

Uptime

15111

Days in orbit

Revolutions

≈ 14.4

Per day

Orbit

LEO

Low Earth Orbit

Inclination

74.1

Latest

Satellite identification and parameters

Extended collection of information and parameters for SL-8 R/B.

Object identification

Identified? True

Debris? False

Object name: SL-8 R/B

International designator: 1984-056B

Object number (NORAD): 15032

Object ID (CCSDS): 15032

Country: COMMONWEALTH OF INDEPENDENT STATES (CIS)

Current information (Y/N): Y

RCS size: LARGE

Orbital parameters

Period: 100.279 minutes

Inclination: 74.0677 deg

SMA: 7149.881 km

Apoapsis: 783.674 km

Periapsis: 759.818 km

RAAN: 260.9258 deg

Eccentricy: 0.00166826

Argument of periapsis: 9.6794 deg

Mean anomaly: 350.4677 deg

Mean motion: 14.36000381 rev/day

Mean motion (dot): 0.00000443 rev/day2

B* drag term: 0.00016117114 1/REarth

Two-line elements (TLE)

Creation date: Oct. 21, 2025, 6:24 p.m.

Reference frame: TEME

Reference center: EARTH

Epoch: Oct. 21, 2025, 8:06 a.m. UTC

TLE line 0: 0 SL-8 R/B

TLE line 1: 1 15032U 84056B 25294.33753856 .00000443 00000-0 16117-3 0 9996

TLE line 2: 2 15032 74.0677 260.9258 0016683 9.6794 350.4677 14.36000381163902

Live tracking on map

Real-time ground track for satellite SL-8 R/B.

In-orbit conjunctions

A list of the most updated potential collisions computed for object SL-8 R/B.

Target Orbit TCA Probability of collision Miss distance Type
COSMOS 2251 DEB LEO 2024-11-11 16:09:21 0.0001721033 842.0 (m) DEBRIS
FENGYUN 1C DEB SSO 2024-07-01 09:07:25 0.0009284374 153.0 (m) DEBRIS

Associated space launch

Military communications satellite

SL-8 R/B was lifted into orbit during the mission ‘Kosmos-3M | Strela-2M 35’, on board a Kosmos-3M space rocket.

The launch took place on June 8, 1984, 11:28 a.m. from 132/1 (132L).

For more information about the launch, click the button.

Launch to space Kosmos-3M | Strela-2M 35
Kosmos-3M | Strela-2M 35

Agency: N/A

Status: Launch Successful

Launch date: June 8, 1984, 11:28 a.m. UTC

Rocket: Kosmos-3M

Launch pad: 132/1 (132L)

Location: Plesetsk Cosmodrome, Russian Federation

...

Latest news about this satellite

There are no fresh news available about this satellite. Check back as we update our databases every day.


Newsletter sign-up

Weekly statistics, charts and insights to help you stay on top of the space industry.